TimeCDT,TemperatureF,Dew PointF,Humidity,Sea Level PressureIn,VisibilityMPH,Wind Direction,Wind SpeedMPH,Gust SpeedMPH,PrecipitationIn,Events,Conditions,WindDirDegrees,DateUTC
12:53 AM,84.9,62.1,46,29.91,10.0,SSE,5.8,-,N/A,,Mostly Cloudy,160,2013-09-07 05:53:00
1:53 AM,84.0,62.1,47,29.92,10.0,South,5.8,-,N/A,,Partly Cloudy,180,2013-09-07 06:53:00
2:53 AM,82.9,64.9,54,29.91,10.0,SSW,6.9,-,N/A,,Clear,200,2013-09-07 07:53:00
3:53 AM,82.0,66.0,58,29.92,10.0,South,3.5,-,N/A,,Mostly Cloudy,190,2013-09-07 08:53:00
4:53 AM,80.1,66.0,62,29.93,10.0,Calm,Calm,-,N/A,,Overcast,0,2013-09-07 09:53:00
5:53 AM,80.1,68.0,67,29.94,10.0,SSW,3.5,-,N/A,,Mostly Cloudy,200,2013-09-07 10:53:00
6:53 AM,81.0,68.0,65,29.95,10.0,Variable,3.5,-,N/A,,Mostly Cloudy,0,2013-09-07 11:53:00
7:53 AM,80.1,68.0,67,29.96,10.0,SSE,5.8,-,N/A,,Scattered Clouds,150,2013-09-07 12:53:00
8:53 AM,84.9,66.9,55,29.98,10.0,Variable,4.6,-,N/A,,Scattered Clouds,0,2013-09-07 13:53:00
9:53 AM,88.0,66.9,49,29.98,10.0,South,5.8,-,N/A,,Scattered Clouds,180,2013-09-07 14:53:00
10:53 AM,93.0,64.9,39,29.99,10.0,Variable,3.5,-,N/A,,Scattered Clouds,0,2013-09-07 15:53:00
11:53 AM,95.0,64.0,36,29.99,10.0,SSW,5.8,-,N/A,,Partly Cloudy,200,2013-09-07 16:53:00
12:53 PM,97.0,63.0,32,29.96,10.0,Variable,6.9,-,N/A,,Partly Cloudy,0,2013-09-07 17:53:00
1:53 PM,93.9,62.1,35,29.94,10.0,Calm,Calm,-,N/A,,Scattered Clouds,0,2013-09-07 18:53:00
2:53 PM,99.0,60.1,28,29.91,10.0,Variable,5.8,-,N/A,,Scattered Clouds,0,2013-09-07 19:53:00
3:53 PM,98.1,57.9,26,29.88,10.0,ESE,5.8,-,N/A,,Partly Cloudy,120,2013-09-07 20:53:00
4:53 PM,97.0,55.9,25,29.87,10.0,SE,4.6,-,N/A,,Partly Cloudy,130,2013-09-07 21:53:00
5:53 PM,98.1,55.9,24,29.86,10.0,ESE,8.1,-,N/A,,Partly Cloudy,110,2013-09-07 22:53:00
6:53 PM,95.0,55.9,27,29.87,10.0,ESE,9.2,-,N/A,,Partly Cloudy,120,2013-09-07 23:53:00
7:53 PM,91.9,57.9,32,29.87,10.0,SE,8.1,-,N/A,,Partly Cloudy,140,2013-09-08 00:53:00
8:53 PM,88.0,57.9,36,29.88,10.0,SSE,5.8,-,N/A,,Clear,150,2013-09-08 01:53:00
9:53 PM,84.0,64.9,53,29.91,10.0,South,10.4,18.4,N/A,,Clear,190,2013-09-08 02:53:00
10:53 PM,81.0,64.9,58,29.91,10.0,South,6.9,-,N/A,,Clear,190,2013-09-08 03:53:00
11:53 PM,80.1,64.9,60,29.92,10.0,South,4.6,-,N/A,,Clear,190,2013-09-08 04:53:00